FW4179 Weather Reports


time (UTC)temp
C
wind
direction
speed
KPH
gust
KPH
rain 1hr
cm
rain 24hr
cm
rain mn
cm
humidity
%
barometer
mb
20260506110056 17 225 1.6 9.7 0.18 0.25 0.25 97 1010.4
20260506104550 17 223 3.2 12.9 0.20 0.23 0.23 97 1010.4
20260506103053 17 0 0.0 4.8 0.18 0.18 0.18 96 1010.2
20260506101556 17 0 0.0 4.8 0.13 0.13 0.13 95 1009.8
20260506100043 17 239 3.2 11.3 0.08 0.08 0.08 93 1010.1
20260506094549 18 222 4.8 12.9 0.03 0.03 0.03 89 1009.6
20260506093050 20 254 4.8 14.5 0.00 0.00 0.00 82 1009.5
20260506091545 20 202 6.4 17.7 0.00 0.00 0.00 79 1009.2
20260506090048 20 216 6.4 17.7 0.00 0.00 0.00 78 1008.8
20260506084548 21 252 4.8 20.9 0.00 0.00 0.00 74 1008.7
20260506083049 21 227 6.4 14.5 0.00 0.00 0.00 73 1008.5
20260506081550 21 215 6.4 19.3 0.00 0.00 0.00 72 1008.7
20260506073054 20 201 6.4 14.5 0.00 0.00 0.00 71 1008.3
20260506071553 20 200 4.8 14.5 0.00 0.00 0.00 70 1008.2
20260506070107 20 179 3.2 16.1 0.00 0.00 0.00 70 1008.6
20260506061548 20 0 3.2 17.7 0.00 0.00 0.00 68 1009.2
20260506044557 20 152 6.4 19.3 0.00 0.00 0.00 68 1009.8
20260506043048 20 164 6.4 16.1 0.00 0.00 0.00 68 1010.1
20260506041552 20 202 4.8 22.5 0.00 0.00 0.00 68 1010.2
20260506040048 20 155 4.8 19.3 0.00 0.00 0.00 68 1010.1
20260506034545 20 162 6.4 20.9 0.00 0.00 0.00 68 1010.3
20260506033051 20 145 1.6 12.9 0.00 0.00 0.00 68 1010.4
20260506031556 20 148 3.2 14.5 0.00 0.00 0.00 67 1010.4
20260506030105 20 137 3.2 12.9 0.00 0.00 0.00 66 1010.4
20260506024549 20 134 1.6 14.5 0.00 0.00 0.00 65 1010.4
20260506023049 20 155 6.4 16.1 0.00 0.00 0.00 64 1010.5
20260506021550 20 144 3.2 16.1 0.00 0.00 0.00 63 1010.5
20260506020046 20 181 3.2 16.1 0.00 0.00 0.00 62 1010.5
20260506014543 20 0 1.6 14.5 0.00 0.00 0.00 61 1010.5
20260506013046 20 142 3.2 16.1 0.00 0.00 0.00 60 1010.3
20260506011554 20 178 1.6 16.1 0.00 0.00 0.00 59 1010.1
20260506010054 20 153 4.8 12.9 0.00 0.00 0.00 58 1010.0
20260506004620 20 178 4.8 16.1 0.00 0.00 0.00 57 1009.9
20260506003045 20 178 8.0 19.3 0.00 0.00 0.00 57 1010.1
20260506001546 20 152 3.2 16.1 0.00 0.00 0.00 56 1010.3
20260506000054 20 151 4.8 16.1 0.00 0.00 0.00 54 1010.3
20260505234611 20 158 4.8 16.1 0.00 0.00 0.00 54 1010.3
20260505233045 21 160 4.8 27.4 0.00 0.00 0.00 54 1010.2
20260505231550 21 166 11.3 25.7 0.00 0.00 0.00 54 1009.7
20260505230050 21 158 9.7 33.8 0.00 0.00 0.00 51 1010.4
20260505224546 21 238 3.2 19.3 0.00 0.00 0.00 52 1011.8
20260505223100 22 216 6.4 11.3 0.00 0.00 0.00 50 1011.2
20260505221558 23 186 4.8 16.1 0.00 0.00 0.00 47 1010.5
20260505214559 23 163 9.7 24.1 0.00 0.00 0.00 50 1010.3
20260505213048 23 169 11.3 27.4 0.00 0.00 0.00 48 1010.2
20260505211554 23 169 8.0 22.5 0.00 0.00 0.00 49 1010.2
20260505210046 23 159 9.7 24.1 0.00 0.00 0.00 50 1010.3
20260505204553 23 198 6.4 17.7 0.00 0.00 0.00 51 1010.6
20260505203045 23 134 6.4 22.5 0.00 0.00 0.00 52 1010.9
20260505201555 22 151 12.9 32.2 0.00 0.00 0.00 52 1011.0
20260505200100 22 145 6.4 25.7 0.00 0.00 0.00 56 1011.5
20260505194544 22 163 6.4 16.1 0.00 0.00 0.00 59 1011.8
20260505193046 21 131 6.4 20.9 0.00 0.00 0.00 59 1011.9
20260505191547 21 141 4.8 17.7 0.00 0.00 0.00 63 1012.3
20260505190050 22 155 1.6 12.9 0.00 0.00 0.00 59 1012.7
20260505184545 21 0 6.4 12.9 0.00 0.00 0.00 60 1013.1
20260505183051 21 163 3.2 12.9 0.00 0.00 0.00 62 1012.5
20260505181554 21 151 4.8 14.5 0.00 0.00 0.00 62 1012.8
20260505180053 20 0 1.6 12.9 0.00 0.00 0.00 64 1013.3
20260505174552 20 210 4.8 12.9 0.00 0.00 0.00 64 1013.7
20260505173056 21 209 11.3 20.9 0.00 0.00 0.00 60 1014.0
20260505171554 21 188 3.2 16.1 0.00 0.00 0.00 63 1014.0
20260505170053 21 219 1.6 16.1 0.00 0.00 0.00 65 1014.2
20260505164546 21 236 4.8 11.3 0.00 0.00 0.00 64 1014.2
20260505163049 21 247 6.4 14.5 0.00 0.00 0.00 65 1014.7
20260505161544 21 238 4.8 14.5 0.00 0.00 0.00 65 1014.9
20260505153048 20 205 3.2 11.3 0.00 0.00 0.00 71 1014.6
20260505151547 19 167 1.6 12.9 0.00 0.00 0.00 70 1014.6
20260505124600 16 135 4.8 12.9 0.00 0.00 0.00 73 1014.4
20260505123053 15 148 0.0 4.8 0.00 0.00 0.00 77 1014.2
20260505121550 14 150 1.6 8.0 0.00 0.00 0.00 76 1013.9
20260505120101 14 155 1.6 8.0 0.00 0.00 0.00 75 1013.7
20260505114547 13 135 3.2 6.4 0.00 0.00 0.00 75 1013.6
20260505113045 13 149 1.6 6.4 0.00 0.00 0.00 74 1013.5
20260505111548 13 149 0.0 4.8 0.00 0.00 0.00 74 1013.4